Simultaneous Nadir Overpasses (SNOs) Predictions

Prediction of SNOs between AQUA and METOP-B Satellite Orbit:

Table of predicted SNOs for the next 14.0 days since TLE Epoch: 11/2/2024
Index Date (AQUA) Time (AQUA) Lat,Lon (AQUA) SZA (AQUA ) Date (METOP-B) Time (METOP-B) Lat,Lon (METOP-B) SZA (METOP-B ) Distance(km) Time Diff (sec)
1 11/02/2024 04:31:17 -76.52, -70.01 88.67 11/02/2024 04:32:30 -76.50, -70.03 88.68 2.28 73
2 11/04/2024 17:22:09 -76.45, 97.56 87.95 11/04/2024 17:21:16 -76.43, 97.53 87.96 1.96 53
3 11/04/2024 18:11:31 76.52, -95.02 92.14 11/04/2024 18:11:54 76.51, -94.86 92.13 4.28 23
4 11/07/2024 07:51:39 -76.47,-119.82 87.15 11/07/2024 07:51:20 -76.49,-119.82 87.13 2.12 19
5 11/07/2024 08:41:01 76.54, 47.57 92.94 11/07/2024 08:41:59 76.52, 47.62 92.91 3.45 58
6 11/09/2024 21:31:43 76.45,-144.72 93.57 11/09/2024 21:30:42 76.48,-144.71 93.60 3.98 61
7 11/09/2024 22:21:04 -76.50, 22.76 86.38 11/09/2024 22:21:23 -76.51, 22.73 86.36 1.62 19
8 11/12/2024 12:01:05 76.49, -2.16 94.33 11/12/2024 12:00:45 76.52, -2.11 94.35 3.33 20
9 11/12/2024 12:50:26 -76.55, 165.33 85.62 11/12/2024 12:51:26 -76.55, 165.33 85.61 0.75 60
10 11/15/2024 01:41:02 -76.50, -27.13 85.00 11/15/2024 01:40:09 -76.51, -27.02 85.00 2.78 53
11 11/15/2024 02:30:23 76.55, 140.37 95.06 11/15/2024 02:30:48 76.53, 140.39 95.04 2.64 25



Historial Predications of SNOs between AQUA and METOP-B
